Weather Service Report


929 
ASUS46 KLOX 280812
RWRCA 

SOUTHERN CALIFORNIA WEATHER ROUNDUP
NATIONAL WEATHER SERVICE OXNARD CALIFORNIA
100 AM PDT THU AUG 28 2014

NOTE: "FAIR" INDICATES FEW OR NO CLOUDS BELOW 12,000 FEET WITH NO 
SIGNIFICANT WEATHER AND/OR OBSTRUCTIONS TO VISIBILITY.

  -  STATIONS PRECEEDED BY AN ASTERISK (*) ARE NOT NWS OR FAA 
     STATIONS AND ARE NOT SUBJECT TO NWS AND FAA QUALITY CONTROL.

CAZ041-042-087-280900-
LA AND ORANGE COUNTY COASTAL AREAS

  
CITY           SKY/WX    TMP DP  RH WIND       PRES   REMARKS
L.A. DOWNTOWN  CLEAR     73  58  59 CALM      30.00F                  
L.A. AIRPORT   CLEAR     73  56  54 CALM      30.01S                  
LONG BEACH     CLEAR     74  53  48 NW3       30.01S                  

CITY           SKY/WX    TMP DP  RH WIND       PRES   REMARKS
AVALON           N/A     68 N/A N/A S2          N/A                   
FULLERTON      CLEAR     74  56  53 CALM      30.00F                  
HAWTHORNE      CLEAR     74  55  51 CALM      30.01S                  
*LEO CARRILLO    N/A     71  55  55 CALM        N/A                   
*LOS ALAMITOS  FAIR      71  57  61 CALM      30.01F                  
*REDONDO BEACH   N/A     70  53  54 CALM      30.00S                  
SANTA ANA      CLEAR     77  56  48 CALM      30.01S                  
STA MONICA APT CLEAR     72  59  63 E3        30.01S                  
*UCLA            N/A     70  55  60 CALM      29.99S                  

$$

CAZ547-548-048-280900-
LA COUNTY VALLEYS AND INLAND EMPIRE

  
CITY           SKY/WX    TMP DP  RH WIND       PRES   REMARKS
BURBANK        CLEAR     77  47  34 CALM      30.02F                  
VAN NUYS       CLEAR     76  42  29 CALM      30.03S                  

CITY           SKY/WX    TMP DP  RH WIND       PRES   REMARKS
CORONA AIRPORT SUNNY     66  53  63 CALM      30.04S                  
*CHATSWORTH      N/A     73  51  46 CALM      29.98S                  
CHINO            N/A    N/A N/A N/A MISG      30.05R                  
MARCH AFB      CLEAR     71  50  48 CALM      30.07S                  
*NORTHRIDGE      N/A     72  46  40 CALM        N/A                   
ONTARIO        CLEAR     74  48  39 N5        30.04S                  
*PASADENA        N/A     73  52  46 E1          N/A                   
RIVERSIDE      CLEAR     76  50  40 CALM      30.04S                  
SAN BERNARDINO NOT AVBL                                               
*SAN GABRIEL     N/A     73  54  51 CALM      29.97F                  
*SAN RAFAEL HI   N/A     73  48  40 SW3         N/A                   
*SAUGUS          N/A     71  48  43 CALM        N/A                   
*WHITEMAN AP   NOT AVBL                                               
*WHITTIER HILL   N/A     73  53  48 CALM        N/A                   
*WOODLAND HILL   N/A     73  39  29 E1          N/A                   

$$

CAZ054-055-280900-
LA AND SAN BERNARDINO COUNTY MOUNTAINS

  
CITY           SKY/WX    TMP DP  RH WIND       PRES   REMARKS
*BIG BEAR AIRP SUNNY     46  37  71 CALM      30.39S                  
MT WILSON NWS    N/A     64  43  45 SW6         N/A                   
SANDBERG       CLEAR     72  35  25 NW15      30.25S                  
*WARM SPRINGS    N/A     69  39  32 W7          N/A                   

$$

CAZ028-029-059-060-099-280900-
ANTELOPE VALLEY AND SURROUNDING AREAS

  
CITY           SKY/WX    TMP DP  RH WIND       PRES   REMARKS
LANCASTER      CLEAR     72  44  36 W12       30.10R                  
PALMDALE       CLEAR     76  46  34 SW9       30.11S                  
*POPPY PARK      N/A     74  39  27 SW7         N/A                   

CITY           SKY/WX    TMP DP  RH WIND       PRES   REMARKS
29 PALMS       CLEAR     82  38  20 W3        30.10R                  
BARSTOW/DAGGET CLEAR     81  42  25 W13       30.04S                  
BISHOP         CLEAR     68  29  23 N7        30.17R                  
CHINA LAKE     CLEAR     75  30  19 S9        30.03S                  
EDWARDS AFB    CLEAR     72  46  40 S9        30.07S                  
MOJAVE         FAIR      79  37  22 W18G24    30.11R                  
NEEDLES        CLEAR     83  41  22 W5        29.92S                  
VICTORVILLE    CLEAR     72  43  35 S6        30.13S                  

$$

CAZ039-040-280900-
VENTURA AND SANTA BARBARA COUNTY COAST

  
CITY           SKY/WX    TMP DP  RH WIND       PRES   REMARKS
CAMARILLO      CLEAR     68  56  65 CALM      30.01F                  
NWS OXNARD       N/A     65  57  74 CALM      30.01F                  
OXNARD AIRPORT CLEAR     67  62  84 NW3       30.02S                  
*POINT MUGU    CLEAR     69  62  78 N6        30.02S                  
SBA APT/GOLETA CLEAR     67  62  84 SE3       30.00S                  
*SANTA BARBARA   N/A     68  61  77 CALM      30.08F                  
*VENTURA         N/A     65  54  65 CALM      30.05S                  

$$

CAZ044-045-280900-
VENTURA COUNTY VALLEYS

  
CITY           SKY/WX    TMP DP  RH WIND       PRES   REMARKS
*SIMI VALLEY     N/A     65  49  55 CALM      29.97S                  
*OJAI            N/A     61  49  65 CALM      29.95F                  
*FILLMORE        N/A     63  53  71 CALM      29.92F                  

$$

CAZ053-280900-
VENTURA COUNTY MOUNTAINS

  
CITY           SKY/WX    TMP DP  RH WIND       PRES   REMARKS
*LOCKWOOD VLY    N/A     54  37  54 MISG        N/A                   
*ROSE VALLEY     N/A     54  41  62 MISG        N/A                   

$$

CAZ034-035-036-280900-
CENTRAL COAST AND SANTA YNEZ VALLEY

  
CITY           SKY/WX    TMP DP  RH WIND       PRES   REMARKS
SAN LUIS OBISP CLOUDY    62  60  93 N7        30.06F                  
SANTA MARIA    CLOUDY    64  59  83 CALM      30.07S                  

CITY           SKY/WX    TMP DP  RH WIND       PRES   REMARKS
*CAL POLY SLO    N/A     61  61 100 N2          N/A                   
*LOMPOC        CLOUDY    61  54  77 CALM      30.07S                  
*PISMO BEACH     N/A     61  59  92 CALM      30.06F                  
*SANTA YNEZ    FAIR      61  54  77 CALM      30.07S                  

$$

CAZ037-038-051-280900-
SAN LUIS OBISPO COUNTY INTERIOR AND CUYAMA VALLEY

  
CITY           SKY/WX    TMP DP  RH WIND       PRES   REMARKS
*CUYAMA          N/A     67  44  43 S1        30.01S                  
PASO ROBLES    CLEAR     61  50  67 CALM      30.07R                  

$$

CAZ032-033-061-280900-
SOUTHERN DESERTS

  
CITY           SKY/WX    TMP DP  RH WIND       PRES   REMARKS
BLYTHE         CLEAR     90  53  28 W9        29.88S                  
IMPERIAL       CLEAR     85  53  33 W10       29.86F                  
PALM SPRINGS   CLEAR     89  52  28 CALM      29.92S                  
THERMAL        CLEAR     92  50  23 NW12      29.85R                  

$$

ELSEWHERE ACROSS THE WESTERN UNITED STATES AND MEXICO

  
CITY           SKY/WX    TMP DP  RH WIND       PRES   REMARKS
DENVER, CO     PTCLDY    56  51  84 S9        30.15F                  
GRAND CANYON,    N/A    N/A N/A N/A MISG        N/A                   
HONOLULU, HI   PTCLDY    79  64  61 NE12      29.93S                  
KAHULUI, MAUI  PTCLDY    79  66  65 NE10      29.93R                  
LAKE TAHOE, CA CLEAR     53  43  68 SW3       30.34S                  
LAS VEGAS, NV  CLEAR     82  35  18 S8        29.99R                  
MAMMOTH LAKES, FAIR      54  32  43 W3        30.40R                  
MEXICO CITY, M PTCLDY    61  48  63 NW5       30.37S                  
PHOENIX, AZ    PTCLDY    90  58  33 E7        29.92R                  
PORTLAND, OR   CLEAR     67  56  67 NW6       30.04S                  
RENO, NV       CLEAR     70  45  40 SW5       30.20S                  
SALT LAKE CITY PTCLDY    62  50  64 SE9       30.20S                  
SAN DIEGO, CA  CLEAR     76  52  43 NW3       30.02R                  
SAN FRANCISCO, PTCLDY    60  58  92 W8        30.06S                  
SAN JOSE, CA   CLEAR     62  57  83 NW5       30.06F                  
SEATTLE, WA    MOCLDY    64  56  75 S3        30.06R                  
TIJUANA, MEX   CLEAR     73  48  40 CALM      30.03                   

$$
  
STATION/POSITION TIME  TEMP    WIND        PRES    VSBY  WAVE
                       AIR SEA DIR/SP/G                  HT/PER
                 (UTC) (F)     (DEG/KT/KT) (MB)    (MI)  (FT/S)
POINT ARGUELLO B NOT AVBL
WEST SANTA BARBA 0800   63 62  320/ 17/ 19 1015.8F         6/14
POINT CONCEPTION NOT AVBL
EAST SANTA BARBA 0700   67 67  280/  8/ 10 1016.3R
SANTA MONICA BAY 0800   70 71  330/ 14/ 16 1015.8S         5/13

Return to Home page


Western Regional Climate Center, wrcc@dri.edu